(2019 TE2) |
Classification: Apollo [NEO] SPK-ID: 3878574 |
[ hide orbit diagram ]
For accurate long-term ephemerides, please instead use our Horizons system.This orbit viewer was implemented using two-body methods, and hence should not be used for determining accurate long-term trajectories (over several years or decades) or planetary encounter circumstances.
Orbital Elements at Epoch 2459000.5 (2020-May-31.0) TDB
Reference: JPL 2 (heliocentric ecliptic J2000)
Element | Value | Uncertainty (1-sigma) | Units |
e | .5888250217913531 | 0.00079266 | |
a | 2.326271370446215 | 0.0044125 | au |
q | .9565045800506216 | 2.9661e-05 | au |
i | 4.01313433929703 | 0.0038219 | deg |
node | 26.60194213579269 | 0.0014958 | deg |
peri | 29.32803482324093 | 0.00084227 | deg |
M | 56.06063692565455 | 0.15765 | deg |
tp | 2458798.689147264055 (2019-Nov-11.18914726) | 0.0066688 | TDB |
period | 1295.952221900161 3.55 | 3.6872 0.0101 | d yr |
n | .2777880186602544 | 0.00079036 | deg/d |
Q | 3.696038160841808 | 0.0070106 | au |
|
| | Orbit Determination Parameters
Additional Information
|
[ show covariance matrix ]
Physical Parameter Table
Parameter |
Symbol |
Value |
Units |
Sigma |
Reference |
Notes |
absolute magnitude |
H |
25.5 |
|
.4822 |
MPO492743 |
autocmod 2.8 |
|
[ hide close-approach data ]
Close-Approach Data ...sorted by Date/Time (TDB)
|
Date/Time (TDB) |
Time Uncertainty (days_HH:MM) |
Body |
Nominal Distance (au) |
Minimum Distance (au) |
Maximum Distance (au) |
V-relative (km/s) |
V-infinity (km/s) |
JD (TDB) |
Time Uncertainty (minutes) |
Semi-major axis (km) |
Semi-minor axis (km) |
range-LOV angle (deg) |
N-sigma |
BP |
Orbit Ref. |
Reference |
Modified |
2019-Oct-18 00:53 |
< 00:01 |
Earth |
0.0211196606663998 |
0.0210463501330276 |
0.0211929699181167 |
10.0571521261794 |
10.0445998783415 |
2458774.537059418 |
0.695011544558271 |
3646.4391787154 |
12.938868508921 |
-0.569147539663696 |
975.477466892415 |
T |
2 |
CATAB v2.0f-lin.ifort 2019-Oct-12 06:37:14 |
2019-Oct-12 06:37 |
|
|